| time (UTC) | temp F | wind direction | speed MPH | gust MPH | rain 1hr in | rain 24hr in | rain mn in | humidity % | barometer mb |
| 20260503213534 | 56 | 273 | 9.0 | 21.0 | 0.00 | 0.00 | 0.00 | 45 | 1011.1 |
| 20260503213039 | 56 | 261 | 11.0 | 29.0 | 0.00 | 0.00 | 0.00 | 43 | 1011.1 |
| 20260503212544 | 56 | 243 | 11.0 | 21.0 | 0.00 | 0.00 | 0.00 | 43 | 1011.1 |
| 20260503212051 | 56 | 225 | 13.0 | 25.0 | 0.00 | 0.00 | 0.00 | 43 | 1011.2 |
| 20260503211609 | 56 | 269 | 14.0 | 27.0 | 0.00 | 0.00 | 0.00 | 42 | 1011.2 |
| 20260503211501 | 56 | 239 | 14.0 | 27.0 | 0.00 | 0.00 | 0.00 | 43 | 1011.3 |
| 20260503211011 | 56 | 272 | 11.0 | 26.0 | 0.00 | 0.00 | 0.00 | 43 | 1011.3 |
| 20260503210523 | 56 | 246 | 13.0 | 26.0 | 0.00 | 0.00 | 0.00 | 42 | 1011.3 |
| 20260503210030 | 57 | 221 | 10.0 | 25.0 | 0.00 | 0.00 | 0.00 | 43 | 1011.3 |
| 20260503205535 | 57 | 224 | 13.0 | 26.0 | 0.00 | 0.00 | 0.00 | 41 | 1011.4 |
| 20260503205020 | 57 | 257 | 14.0 | 30.0 | 0.00 | 0.00 | 0.00 | 41 | 1011.3 |
| 20260503204526 | 57 | 258 | 15.0 | 30.0 | 0.00 | 0.00 | 0.00 | 41 | 1011.3 |
| 20260503204035 | 57 | 254 | 13.0 | 27.0 | 0.00 | 0.00 | 0.00 | 42 | 1011.3 |
| 20260503203519 | 57 | 236 | 12.0 | 27.0 | 0.00 | 0.00 | 0.00 | 42 | 1011.3 |
| 20260503203124 | 57 | 270 | 11.0 | 28.0 | 0.00 | 0.00 | 0.00 | 42 | 1011.4 |
| 20260503202505 | 58 | 235 | 14.0 | 26.0 | 0.00 | 0.00 | 0.00 | 42 | 1011.4 |
| 20260503202016 | 58 | 257 | 13.0 | 22.0 | 0.00 | 0.00 | 0.00 | 43 | 1011.5 |
| 20260503201552 | 58 | 290 | 10.0 | 22.0 | 0.00 | 0.00 | 0.00 | 44 | 1011.4 |
| 20260503201024 | 57 | 238 | 11.0 | 23.0 | 0.00 | 0.00 | 0.00 | 45 | 1011.4 |
| 20260503200527 | 57 | 246 | 13.0 | 30.0 | 0.00 | 0.00 | 0.00 | 44 | 1011.5 |
| 20260503200036 | 56 | 281 | 15.0 | 31.0 | 0.00 | 0.00 | 0.00 | 44 | 1011.6 |
| 20260503195516 | 56 | 264 | 13.0 | 26.0 | 0.00 | 0.00 | 0.00 | 47 | 1011.8 |
| 20260503195023 | 57 | 278 | 14.0 | 26.0 | 0.00 | 0.00 | 0.00 | 45 | 1011.8 |
| 20260503194511 | 56 | 265 | 15.0 | 26.0 | 0.00 | 0.00 | 0.00 | 44 | 1011.9 |
| 20260503194017 | 56 | 277 | 14.0 | 29.0 | 0.00 | 0.00 | 0.00 | 47 | 1011.9 |
| 20260503193600 | 56 | 261 | 12.0 | 29.0 | 0.00 | 0.00 | 0.00 | 46 | 1012.1 |
| 20260503193502 | 56 | 284 | 13.0 | 29.0 | 0.00 | 0.00 | 0.00 | 46 | 1012.0 |
| 20260503193005 | 56 | 307 | 13.0 | 28.0 | 0.00 | 0.00 | 0.00 | 46 | 1012.2 |
| 20260503192517 | 56 | 273 | 12.0 | 28.0 | 0.00 | 0.00 | 0.00 | 46 | 1012.2 |
| 20260503192102 | 56 | 278 | 14.0 | 24.0 | 0.00 | 0.00 | 0.00 | 46 | 1012.2 |
| 20260503191515 | 56 | 255 | 13.0 | 35.0 | 0.00 | 0.00 | 0.00 | 47 | 1012.3 |
| 20260503191027 | 56 | 249 | 12.0 | 35.0 | 0.00 | 0.00 | 0.00 | 46 | 1012.3 |
| 20260503190527 | 56 | 237 | 10.0 | 23.0 | 0.00 | 0.00 | 0.00 | 48 | 1012.4 |
| 20260503190020 | 55 | 242 | 13.0 | 23.0 | 0.00 | 0.00 | 0.00 | 48 | 1012.4 |
| 20260503185521 | 56 | 234 | 14.0 | 22.0 | 0.00 | 0.00 | 0.00 | 46 | 1012.5 |
| 20260503185020 | 55 | 246 | 12.0 | 24.0 | 0.00 | 0.00 | 0.00 | 47 | 1012.6 |
| 20260503184507 | 56 | 263 | 13.0 | 27.0 | 0.00 | 0.00 | 0.00 | 46 | 1012.7 |
| 20260503184009 | 55 | 227 | 11.0 | 27.0 | 0.00 | 0.00 | 0.00 | 48 | 1012.8 |
| 20260503183556 | 55 | 251 | 13.0 | 25.0 | 0.00 | 0.00 | 0.00 | 47 | 1012.7 |
| 20260503183502 | 55 | 264 | 14.0 | 25.0 | 0.00 | 0.00 | 0.00 | 47 | 1012.7 |
| 20260503183009 | 55 | 237 | 14.0 | 25.0 | 0.00 | 0.00 | 0.00 | 46 | 1012.9 |
| 20260503182512 | 55 | 253 | 14.0 | 24.0 | 0.00 | 0.00 | 0.00 | 48 | 1012.8 |
| 20260503182027 | 55 | 263 | 11.0 | 21.0 | 0.00 | 0.00 | 0.00 | 49 | 1012.9 |
| 20260503181601 | 55 | 246 | 12.0 | 20.0 | 0.00 | 0.00 | 0.00 | 49 | 1013.0 |
| 20260503181028 | 55 | 242 | 11.0 | 18.0 | 0.00 | 0.00 | 0.00 | 50 | 1012.9 |
| 20260503180530 | 54 | 269 | 10.0 | 20.0 | 0.00 | 0.00 | 0.00 | 52 | 1013.1 |
| 20260503180031 | 54 | 238 | 10.0 | 20.0 | 0.00 | 0.00 | 0.00 | 52 | 1013.2 |
| 20260503175539 | 54 | 255 | 9.0 | 21.0 | 0.00 | 0.00 | 0.00 | 52 | 1013.2 |
| 20260503175046 | 54 | 238 | 10.0 | 21.0 | 0.00 | 0.00 | 0.00 | 51 | 1013.2 |
| 20260503174558 | 55 | 229 | 12.0 | 20.0 | 0.00 | 0.00 | 0.00 | 50 | 1013.3 |
| 20260503174101 | 55 | 248 | 12.0 | 24.0 | 0.00 | 0.00 | 0.00 | 51 | 1013.3 |
| 20260503173509 | 54 | 279 | 11.0 | 24.0 | 0.00 | 0.00 | 0.00 | 49 | 1013.2 |
| 20260503173039 | 54 | 260 | 11.0 | 24.0 | 0.00 | 0.00 | 0.00 | 48 | 1013.4 |
| 20260503172528 | 55 | 288 | 9.0 | 20.0 | 0.00 | 0.00 | 0.00 | 47 | 1013.3 |
| 20260503172034 | 55 | 244 | 11.0 | 20.0 | 0.00 | 0.00 | 0.00 | 46 | 1013.5 |
| 20260503171539 | 56 | 250 | 9.0 | 24.0 | 0.00 | 0.00 | 0.00 | 43 | 1013.4 |
| 20260503171049 | 57 | 238 | 11.0 | 21.0 | 0.00 | 0.00 | 0.00 | 40 | 1013.4 |
| 20260503170553 | 57 | 275 | 11.0 | 17.0 | 0.00 | 0.00 | 0.00 | 42 | 1013.4 |
| 20260503150526 | 51 | 234 | 10.0 | 17.0 | 0.00 | 0.00 | 0.00 | 46 | 1015.1 |
| 20260503131054 | 46 | 243 | 8.0 | 20.0 | 0.00 | 0.00 | 0.00 | 66 | 1015.6 |
| 20260503130558 | 46 | 254 | 11.0 | 20.0 | 0.00 | 0.00 | 0.00 | 66 | 1015.6 |
| 20260503110533 | 39 | 180 | 1.0 | 8.0 | 0.00 | 0.00 | 0.00 | 79 | 1015.3 |
| 20260503081548 | 37 | 184 | 1.0 | 4.0 | 0.00 | 0.00 | 0.00 | 79 | 1015.5 |
| 20260503081055 | 37 | 186 | 1.0 | 3.0 | 0.00 | 0.00 | 0.00 | 79 | 1015.5 |
| 20260503080508 | 37 | 188 | 0.0 | 3.0 | 0.00 | 0.00 | 0.00 | 79 | 1015.5 |
| 20260503072552 | 37 | 192 | 1.0 | 4.0 | 0.00 | 0.00 | 0.00 | 78 | 1015.5 |
| 20260503072100 | 37 | 209 | 1.0 | 4.0 | 0.00 | 0.00 | 0.00 | 78 | 1015.5 |
| 20260503071515 | 37 | 200 | 0.0 | 5.0 | 0.00 | 0.00 | 0.00 | 78 | 1015.5 |
| 20260503071023 | 37 | 204 | 0.0 | 5.0 | 0.00 | 0.00 | 0.00 | 78 | 1015.5 |
| 20260503070525 | 37 | 210 | 1.0 | 5.0 | 0.00 | 0.00 | 0.00 | 78 | 1015.5 |
| 20260503055037 | 38 | 191 | 0.0 | 5.0 | 0.00 | 0.00 | 0.00 | 77 | 1015.9 |
| 20260503054523 | 38 | 180 | 0.0 | 6.0 | 0.00 | 0.00 | 0.00 | 77 | 1016.0 |
| 20260503054030 | 38 | 189 | 1.0 | 6.0 | 0.00 | 0.00 | 0.00 | 77 | 1015.9 |
| 20260503053535 | 38 | 182 | 2.0 | 5.0 | 0.00 | 0.00 | 0.00 | 78 | 1015.9 |
| 20260503053043 | 38 | 188 | 1.0 | 5.0 | 0.00 | 0.00 | 0.00 | 78 | 1016.0 |
| 20260503052531 | 38 | 190 | 0.0 | 4.0 | 0.00 | 0.00 | 0.00 | 77 | 1016.1 |
| 20260503052032 | 38 | 193 | 0.0 | 4.0 | 0.00 | 0.00 | 0.00 | 77 | 1016.1 |
| 20260503051513 | 39 | 232 | 0.0 | 2.0 | 0.00 | 0.00 | 0.00 | 75 | 1016.1 |
| 20260503051025 | 39 | 232 | 0.0 | 1.0 | 0.00 | 0.00 | 0.00 | 75 | 1016.1 |
| 20260503050533 | 40 | 232 | 0.0 | 3.0 | 0.00 | 0.00 | 0.00 | 74 | 1016.1 |
| 20260503050039 | 40 | 232 | 1.0 | 7.0 | 0.00 | 0.00 | 0.00 | 74 | 1016.1 |
| 20260503045544 | 41 | 242 | 2.0 | 9.0 | 0.00 | 0.00 | 0.00 | 74 | 1016.2 |
| 20260503045051 | 41 | 260 | 5.0 | 9.0 | 0.00 | 0.00 | 0.00 | 74 | 1016.1 |
| 20260503044625 | 41 | 242 | 4.0 | 12.0 | 0.00 | 0.00 | 0.00 | 73 | 1016.1 |
| 20260503044005 | 41 | 250 | 7.0 | 14.0 | 0.00 | 0.00 | 0.00 | 73 | 1016.1 |
| 20260503043515 | 41 | 273 | 4.0 | 15.0 | 0.00 | 0.00 | 0.00 | 74 | 1016.2 |
| 20260503043029 | 41 | 261 | 6.0 | 15.0 | 0.00 | 0.00 | 0.00 | 74 | 1016.2 |
| 20260503042535 | 41 | 286 | 5.0 | 15.0 | 0.00 | 0.00 | 0.00 | 74 | 1016.2 |
| 20260503042046 | 41 | 252 | 6.0 | 15.0 | 0.00 | 0.00 | 0.00 | 74 | 1016.3 |
| 20260503041553 | 40 | 253 | 6.0 | 12.0 | 0.00 | 0.00 | 0.00 | 74 | 1016.3 |
| 20260503041059 | 40 | 240 | 5.0 | 12.0 | 0.00 | 0.00 | 0.00 | 75 | 1016.3 |
| 20260503040508 | 41 | 244 | 5.0 | 12.0 | 0.00 | 0.00 | 0.00 | 74 | 1016.3 |
| 20260503040054 | 40 | 282 | 5.0 | 11.0 | 0.00 | 0.00 | 0.00 | 74 | 1016.3 |
| 20260503035554 | 41 | 236 | 5.0 | 15.0 | 0.00 | 0.00 | 0.00 | 75 | 1016.3 |
| 20260503035103 | 40 | 236 | 7.0 | 15.0 | 0.00 | 0.00 | 0.00 | 75 | 1016.3 |
| 20260503034518 | 40 | 286 | 4.0 | 10.0 | 0.00 | 0.00 | 0.00 | 75 | 1016.4 |
| 20260503034027 | 41 | 240 | 3.0 | 9.0 | 0.00 | 0.00 | 0.00 | 75 | 1016.4 |
| 20260503033518 | 41 | 257 | 4.0 | 15.0 | 0.00 | 0.00 | 0.00 | 74 | 1016.4 |
| 20260503033025 | 41 | 248 | 5.0 | 15.0 | 0.00 | 0.00 | 0.00 | 74 | 1016.4 |
| 20260503032532 | 41 | 262 | 6.0 | 13.0 | 0.00 | 0.00 | 0.00 | 75 | 1016.4 |
| 20260503032038 | 41 | 249 | 3.0 | 10.0 | 0.00 | 0.00 | 0.00 | 74 | 1016.5 |
| 20260503031544 | 41 | 236 | 5.0 | 11.0 | 0.00 | 0.00 | 0.00 | 74 | 1016.5 |
| 20260503031030 | 41 | 246 | 5.0 | 11.0 | 0.00 | 0.00 | 0.00 | 74 | 1016.5 |
| 20260503030537 | 41 | 259 | 4.0 | 10.0 | 0.00 | 0.00 | 0.00 | 73 | 1016.5 |
| 20260503030050 | 41 | 249 | 4.0 | 10.0 | 0.00 | 0.00 | 0.00 | 73 | 1016.5 |
| 20260503025553 | 41 | 244 | 5.0 | 10.0 | 0.00 | 0.00 | 0.00 | 73 | 1016.5 |
| 20260503025002 | 41 | 235 | 5.0 | 12.0 | 0.00 | 0.00 | 0.00 | 73 | 1016.6 |
| 20260503024517 | 41 | 257 | 4.0 | 12.0 | 0.00 | 0.00 | 0.00 | 73 | 1016.6 |
| 20260503024026 | 41 | 240 | 6.0 | 12.0 | 0.00 | 0.00 | 0.00 | 73 | 1016.6 |
| 20260503023537 | 41 | 256 | 4.0 | 10.0 | 0.00 | 0.00 | 0.00 | 73 | 1016.7 |
| 20260503023048 | 41 | 231 | 3.0 | 9.0 | 0.00 | 0.00 | 0.00 | 73 | 1016.7 |
| 20260503022552 | 41 | 242 | 3.0 | 9.0 | 0.00 | 0.00 | 0.00 | 74 | 1016.7 |
| 20260503022038 | 41 | 241 | 2.0 | 9.0 | 0.00 | 0.00 | 0.00 | 74 | 1016.8 |
| 20260503021524 | 41 | 236 | 2.0 | 5.0 | 0.00 | 0.00 | 0.00 | 74 | 1016.8 |
| 20260503021025 | 41 | 244 | 1.0 | 6.0 | 0.00 | 0.00 | 0.00 | 74 | 1016.8 |
| 20260503020527 | 41 | 243 | 1.0 | 7.0 | 0.00 | 0.00 | 0.00 | 74 | 1016.8 |
| 20260503020031 | 41 | 265 | 1.0 | 10.0 | 0.00 | 0.00 | 0.00 | 73 | 1016.8 |
| 20260503015512 | 41 | 206 | 4.0 | 11.0 | 0.00 | 0.00 | 0.00 | 73 | 1016.7 |
| 20260503015014 | 41 | 249 | 2.0 | 9.0 | 0.00 | 0.00 | 0.00 | 73 | 1016.7 |
| 20260503014524 | 41 | 238 | 3.0 | 9.0 | 0.00 | 0.00 | 0.00 | 73 | 1016.7 |
| 20260503014007 | 41 | 239 | 1.0 | 5.0 | 0.00 | 0.00 | 0.00 | 74 | 1016.7 |
| 20260503013522 | 41 | 236 | 2.0 | 5.0 | 0.00 | 0.00 | 0.00 | 73 | 1016.8 |
| 20260503013003 | 41 | 260 | 2.0 | 8.0 | 0.00 | 0.00 | 0.00 | 72 | 1016.8 |
| 20260503012520 | 41 | 257 | 2.0 | 9.0 | 0.00 | 0.00 | 0.00 | 72 | 1016.8 |
| 20260503012021 | 41 | 250 | 4.0 | 9.0 | 0.00 | 0.00 | 0.00 | 72 | 1016.8 |
| 20260503011532 | 41 | 236 | 4.0 | 9.0 | 0.00 | 0.00 | 0.00 | 72 | 1016.8 |
| 20260503011035 | 41 | 270 | 2.0 | 9.0 | 0.00 | 0.00 | 0.00 | 72 | 1016.7 |
| 20260503010543 | 41 | 259 | 5.0 | 10.0 | 0.00 | 0.00 | 0.00 | 72 | 1016.7 |
| 20260503010052 | 41 | 234 | 4.0 | 10.0 | 0.00 | 0.00 | 0.00 | 71 | 1016.7 |
| 20260503005607 | 41 | 227 | 4.0 | 8.0 | 0.00 | 0.00 | 0.00 | 71 | 1016.7 |
| 20260503005503 | 41 | 246 | 2.0 | 8.0 | 0.00 | 0.00 | 0.00 | 70 | 1016.7 |
| 20260503005046 | 41 | 242 | 4.0 | 9.0 | 0.00 | 0.00 | 0.00 | 69 | 1016.7 |
| 20260503004536 | 41 | 234 | 4.0 | 9.0 | 0.00 | 0.00 | 0.00 | 69 | 1016.7 |
| 20260503004046 | 41 | 281 | 4.0 | 10.0 | 0.00 | 0.00 | 0.00 | 68 | 1016.6 |
| 20260503003554 | 41 | 246 | 5.0 | 9.0 | 0.00 | 0.00 | 0.00 | 69 | 1016.6 |
| 20260503003106 | 41 | 265 | 4.0 | 9.0 | 0.00 | 0.00 | 0.00 | 69 | 1016.6 |
| 20260503002507 | 41 | 287 | 4.0 | 10.0 | 0.00 | 0.00 | 0.00 | 69 | 1016.6 |
| 20260503002014 | 41 | 242 | 4.0 | 10.0 | 0.00 | 0.00 | 0.00 | 69 | 1016.6 |
| 20260503001510 | 41 | 230 | 3.0 | 8.0 | 0.00 | 0.00 | 0.00 | 70 | 1016.6 |
| 20260503001052 | 41 | 263 | 4.0 | 8.0 | 0.00 | 0.00 | 0.00 | 71 | 1016.6 |
| 20260503000557 | 41 | 240 | 3.0 | 8.0 | 0.00 | 0.00 | 0.00 | 71 | 1016.7 |
| 20260503000013 | 41 | 259 | 3.0 | 8.0 | 0.00 | 0.00 | 0.00 | 70 | 1016.6 |
| 20260502235517 | 42 | 242 | 3.0 | 11.0 | 0.00 | 0.00 | 0.00 | 71 | 1016.6 |
| 20260502235002 | 42 | 243 | 4.0 | 11.0 | 0.00 | 0.00 | 0.00 | 70 | 1016.6 |
| 20260502234511 | 42 | 291 | 3.0 | 10.0 | 0.00 | 0.00 | 0.00 | 71 | 1016.6 |
| 20260502234023 | 42 | 259 | 3.0 | 10.0 | 0.00 | 0.00 | 0.00 | 71 | 1016.5 |
| 20260502233531 | 42 | 227 | 3.0 | 10.0 | 0.00 | 0.00 | 0.00 | 70 | 1016.6 |
| 20260502233017 | 42 | 257 | 4.0 | 11.0 | 0.00 | 0.00 | 0.00 | 69 | 1016.6 |
| 20260502232519 | 42 | 255 | 5.0 | 10.0 | 0.00 | 0.00 | 0.00 | 70 | 1016.6 |
| 20260502232038 | 42 | 230 | 5.0 | 10.0 | 0.00 | 0.00 | 0.00 | 70 | 1016.6 |
| 20260502231526 | 42 | 234 | 5.0 | 11.0 | 0.00 | 0.00 | 0.00 | 69 | 1016.6 |
| 20260502231031 | 42 | 248 | 6.0 | 14.0 | 0.00 | 0.00 | 0.00 | 69 | 1016.6 |
| 20260502230540 | 42 | 236 | 5.0 | 14.0 | 0.00 | 0.00 | 0.00 | 69 | 1016.6 |
| 20260502230042 | 42 | 260 | 5.0 | 10.0 | 0.00 | 0.00 | 0.00 | 69 | 1016.6 |
| 20260502225553 | 42 | 240 | 4.0 | 15.0 | 0.00 | 0.00 | 0.00 | 69 | 1016.6 |
| 20260502225059 | 42 | 241 | 6.0 | 15.0 | 0.00 | 0.00 | 0.00 | 69 | 1016.6 |
| 20260502224509 | 42 | 249 | 5.0 | 13.0 | 0.00 | 0.00 | 0.00 | 69 | 1016.6 |
| 20260502224022 | 42 | 232 | 4.0 | 14.0 | 0.00 | 0.00 | 0.00 | 70 | 1016.5 |
| 20260502223525 | 42 | 276 | 6.0 | 14.0 | 0.00 | 0.00 | 0.00 | 70 | 1016.5 |
| 20260502223039 | 42 | 223 | 6.0 | 14.0 | 0.00 | 0.00 | 0.00 | 69 | 1016.5 |
| 20260502222543 | 42 | 248 | 5.0 | 14.0 | 0.00 | 0.00 | 0.00 | 69 | 1016.5 |
| 20260502222047 | 42 | 257 | 4.0 | 12.0 | 0.00 | 0.00 | 0.00 | 69 | 1016.5 |
| 20260502221535 | 42 | 237 | 7.0 | 14.0 | 0.00 | 0.00 | 0.00 | 67 | 1016.5 |
| 20260502221059 | 43 | 255 | 7.0 | 14.0 | 0.00 | 0.00 | 0.00 | 67 | 1016.6 |
| 20260502220505 | 43 | 240 | 6.0 | 14.0 | 0.00 | 0.00 | 0.00 | 68 | 1016.5 |
| 20260502220008 | 43 | 269 | 7.0 | 13.0 | 0.00 | 0.00 | 0.00 | 67 | 1016.5 |
| 20260502215520 | 43 | 248 | 7.0 | 13.0 | 0.00 | 0.00 | 0.00 | 67 | 1016.5 |
| 20260502215018 | 43 | 254 | 5.0 | 14.0 | 0.00 | 0.00 | 0.00 | 67 | 1016.5 |
| 20260502214508 | 44 | 246 | 7.0 | 16.0 | 0.00 | 0.00 | 0.00 | 65 | 1016.5 |
| 20260502214016 | 44 | 229 | 8.0 | 16.0 | 0.00 | 0.00 | 0.00 | 66 | 1016.4 |